Date String (YYYY-MM-DD hh:mm:ss) UTC,Instrument flags,absolute air pressure of the measurement (hPa),sample flow rate (lpm),inlet stack bypass flow (lpm),air temperature of the measurement (°C),ambient temperature measured by the external sensor (°C),aerosol sample conditioner tube jacket temperature (°C),OPC LED temperature (°C),internal box temperature (°C),relative humidity of the measurement (%),span deviation,mass concentration of particles derived from Lorenz-Mie calculation of OPC scattering (μg/m³),mass concentration of particles derived from Lorenz-Mie calculation of OPC scattering (μg/m³),mass concentration of particles derived from Lorenz-Mie calculation of OPC scattering (μg/m³)
DateTimeUTC,F1_M11,P_M11,Q1_M11,Q2_M11,T1_M11,T2_M11,T3_M11,T4_M11,T5_M11,U1_M11,ZSPAN_M11,X2_M11,X0_M11,X1_M11
2024-05-06 15:00:00,SystemResetWarning,0810.1,5.01,000.00,021.9,021.1,000.0,030.3,023.6,011.0,0000.0,0001.66,0011.63,0000.31
2024-05-06 15:01:00,SystemResetWarning,0810.3,5.01,000.00,021.9,021.1,000.0,030.3,023.6,011.0,0000.0,0001.74,0014.92,0000.31
2024-05-06 15:02:00,SystemResetWarning,0810.4,4.99,000.00,021.9,021.1,000.0,030.3,023.6,011.0,0000.0,0001.78,0015.13,0000.29
2024-05-06 15:03:00,SystemResetWarning,0810.3,4.99,000.00,021.9,021.1,000.0,030.3,023.6,011.1,0000.0,0001.70,0014.18,0000.29
2024-05-06 15:04:00,SystemResetWarning,0810.4,5.01,000.00,021.9,021.1,000.0,030.3,023.6,011.1,0000.0,0001.65,0014.53,0000.28
2024-05-06 15:05:00,SystemResetWarning,0810.4,5.01,000.00,021.9,021.1,000.0,030.3,023.6,011.1,0000.0,0001.53,0014.15,0000.27
2024-05-06 15:06:00,SystemResetWarning,0810.3,4.98,000.00,021.9,021.0,000.0,030.2,023.5,011.0,0000.0,0001.61,0013.83,0000.27
2024-05-06 15:07:00,SystemResetWarning,0810.2,5.01,000.00,021.9,021.0,000.0,030.2,023.6,010.9,0000.0,0001.74,0014.29,0000.27
2024-05-06 15:08:00,SystemResetWarning,0810.4,5.01,000.00,021.9,021.0,000.0,030.2,023.6,010.7,0000.0,0001.69,0015.01,0000.26
2024-05-06 15:09:00,SystemResetWarning,0810.3,4.98,000.00,021.9,021.0,000.0,030.2,023.6,010.8,0000.0,0001.70,0016.13,0000.25
2024-05-06 15:10:00,SystemResetWarning,0810.2,5.00,000.00,021.9,021.0,000.0,030.2,023.6,010.9,0000.0,0001.72,0015.97,0000.26
2024-05-06 15:11:00,SystemResetWarning,0810.2,5.01,000.00,021.8,021.0,000.0,030.2,023.5,011.2,0000.0,0001.77,0014.44,0000.26
2024-05-06 15:12:00,SystemResetWarning,0810.3,5.01,000.00,021.8,021.0,000.0,030.2,023.5,011.1,0000.0,0001.87,0012.49,0000.26
2024-05-06 15:13:00,SystemResetWarning,0810.5,5.00,000.00,021.8,021.0,000.0,030.2,023.5,011.1,0000.0,0001.82,0012.09,0000.26
2024-05-06 15:14:00,SystemResetWarning,0810.4,5.00,000.00,021.8,021.0,000.0,030.2,023.5,011.3,0000.0,0001.87,0011.19,0000.25
2024-05-06 15:15:00,SystemResetWarning,0810.0,5.00,000.00,021.8,021.0,000.0,030.2,023.5,010.9,0000.0,0001.89,0010.75,0000.25
2024-05-06 15:16:00,SystemResetWarning,0809.9,5.00,000.00,021.8,021.0,000.0,030.2,023.5,010.8,0000.0,0001.92,0011.10,0000.25
2024-05-06 15:17:00,SystemResetWarning,0810.2,5.00,000.00,021.8,020.9,000.0,030.1,023.5,011.1,0000.0,0001.97,0012.56,0000.26
2024-05-06 15:18:00,SystemResetWarning,0810.2,5.00,000.00,021.8,020.9,000.0,030.1,023.5,011.0,0000.0,0001.83,0013.22,0000.26
2024-05-06 15:19:00,SystemResetWarning,0810.1,5.00,000.00,021.7,020.9,000.0,030.1,023.4,010.9,0000.0,0001.77,0012.66,0000.26
2024-05-06 15:20:00,SystemResetWarning,0809.9,4.99,000.00,021.7,020.9,000.0,030.1,023.4,011.0,0000.0,0001.75,0012.21,0000.27
2024-05-06 15:21:00,SystemResetWarning,0810.0,5.00,000.00,021.7,020.8,000.0,030.1,023.4,011.0,0000.0,0001.83,0012.49,0000.27
2024-05-06 15:22:00,SystemResetWarning,0810.2,5.01,000.00,021.7,020.8,000.0,030.1,023.4,011.2,0000.0,0001.94,0013.97,0000.28
2024-05-06 15:23:00,SystemResetWarning,0810.1,5.01,000.00,021.7,020.8,000.0,030.1,023.4,011.1,0000.0,0001.84,0013.60,0000.28
2024-05-06 15:24:00,SystemResetWarning,0810.1,5.00,000.00,021.7,020.8,000.0,030.1,023.4,011.4,0000.0,0001.79,0013.16,0000.27
2024-05-06 15:25:00,SystemResetWarning,0809.9,5.00,000.00,021.7,020.8,000.0,030.0,023.4,011.3,0000.0,0001.71,0013.45,0000.26
2024-05-06 15:26:00,SystemResetWarning,0810.2,5.00,000.00,021.7,020.8,000.0,030.0,023.4,011.0,0000.0,0001.75,0014.39,0000.27
2024-05-06 15:27:00,SystemResetWarning,0810.2,5.00,000.00,021.6,020.8,000.0,030.0,023.4,011.3,0000.0,0001.98,0014.75,0000.29
2024-05-06 15:28:00,SystemResetWarning,0810.1,5.00,000.00,021.6,020.7,000.0,030.0,023.3,011.3,0000.0,0001.90,0012.97,0000.28
2024-05-06 15:29:00,SystemResetWarning,0809.9,4.99,000.00,021.6,020.7,000.0,030.0,023.3,011.3,0000.0,0001.84,0011.52,0000.27
2024-05-06 15:30:00,SystemResetWarning,0810.1,5.00,000.00,021.6,020.7,000.0,030.0,023.3,011.2,0000.0,0001.91,0012.80,0000.28
2024-05-06 15:31:00,SystemResetWarning,0810.1,5.00,000.00,021.6,020.7,000.0,030.0,023.3,011.5,0000.0,0002.07,0014.05,0000.29
2024-05-06 15:32:00,SystemResetWarning,0810.4,5.00,000.00,021.6,020.7,000.0,030.0,023.3,011.6,0000.0,0002.07,0015.39,0000.29
2024-05-06 15:33:00,SystemResetWarning,0810.2,5.00,000.00,021.6,020.7,000.0,030.0,023.3,011.5,0000.0,0001.95,0015.06,0000.29
2024-05-06 15:34:00,SystemResetWarning,0810.0,5.00,000.00,021.5,020.7,000.0,030.0,023.2,011.1,0000.0,0001.88,0014.24,0000.29
2024-05-06 15:35:00,SystemResetWarning,0810.2,5.01,000.00,021.5,020.7,000.0,030.0,023.2,011.3,0000.0,0001.84,0014.60,0000.29
2024-05-06 15:36:00,SystemResetWarning,0810.3,5.01,000.00,021.5,020.6,000.0,029.9,023.2,011.4,0000.0,0001.98,0015.81,0000.31
2024-05-06 15:37:00,SystemResetWarning,0810.1,4.98,000.00,021.5,020.6,000.0,029.9,023.2,011.5,0000.0,0002.04,0015.25,0000.31
2024-05-06 15:38:00,SystemResetWarning,0810.4,5.01,000.00,021.5,020.6,000.0,029.9,023.2,011.5,0000.0,0001.87,0015.95,0000.30
2024-05-06 15:39:00,SystemResetWarning,0810.1,4.99,000.00,021.5,020.6,000.0,029.9,023.2,011.6,0000.0,0001.70,0016.23,0000.28
2024-05-06 15:40:00,SystemResetWarning,0810.0,5.01,000.00,021.4,020.6,000.0,029.9,023.2,011.6,0000.0,0001.91,0018.42,0000.30
2024-05-06 15:41:00,SystemResetWarning,0810.0,5.01,000.00,021.4,020.5,000.0,029.9,023.1,011.6,0000.0,0002.49,0022.33,0000.33
2024-05-06 15:42:00,SystemResetWarning,0810.0,5.01,000.00,021.4,020.5,000.0,029.8,023.1,011.6,0000.0,0002.48,0022.77,0000.32
2024-05-06 15:43:00,SystemResetWarning,0810.1,5.00,000.00,021.4,020.5,000.0,029.8,023.1,011.8,0000.0,0002.42,0020.76,0000.32
2024-05-06 15:44:00,SystemResetWarning,0810.2,5.00,000.00,021.4,020.5,000.0,029.8,023.1,011.8,0000.0,0002.42,0020.41,0000.31
2024-05-06 15:45:00,SystemResetWarning,0810.4,4.99,000.00,021.4,020.5,000.0,029.8,023.0,011.9,0000.0,0002.53,0021.93,0000.31
2024-05-06 15:46:00,SystemResetWarning,0810.5,5.00,000.00,021.4,020.4,000.0,029.8,023.0,012.0,0000.0,0002.67,0023.41,0000.33
2024-05-06 15:47:00,SystemResetWarning,0810.5,5.00,000.00,021.3,020.4,000.0,029.8,023.0,012.1,0000.0,0002.58,0022.56,0000.31
2024-05-06 15:48:00,SystemResetWarning,0810.5,5.01,000.00,021.3,020.4,000.0,029.8,023.0,012.1,0000.0,0002.42,0021.69,0000.30
2024-05-06 15:49:00,SystemResetWarning,0810.5,5.00,000.00,021.3,020.4,000.0,029.8,023.0,012.3,0000.0,0002.36,0020.24,0000.28
2024-05-06 15:50:00,SystemResetWarning,0810.3,4.98,000.00,021.3,020.4,000.0,029.7,023.0,012.1,0000.0,0002.32,0019.52,0000.28
2024-05-06 15:51:00,SystemResetWarning,0810.0,5.00,000.00,021.3,020.4,000.0,029.7,023.0,012.0,0000.0,0002.12,0017.69,0000.27
2024-05-06 15:52:00,SystemResetWarning,0810.3,5.01,000.00,021.3,020.4,000.0,029.7,023.0,011.5,0000.0,0001.62,0014.70,0000.23
2024-05-06 15:53:00,SystemResetWarning,0809.9,5.00,000.00,021.3,020.4,000.0,029.7,023.0,011.8,0000.0,0001.60,0015.70,0000.24
2024-05-06 15:54:00,SystemResetWarning,0809.9,4.98,000.00,021.3,020.4,000.0,029.7,023.0,012.0,0000.0,0001.57,0015.99,0000.23
2024-05-06 15:55:00,SystemResetWarning,0810.0,5.01,000.00,021.2,020.4,000.0,029.7,023.0,011.6,0000.0,0001.70,0016.61,0000.25
2024-05-06 15:56:00,SystemResetWarning,0810.2,5.02,000.00,021.2,020.3,000.0,029.7,023.0,011.1,0000.0,0001.73,0017.30,0000.26
2024-05-06 15:57:00,SystemResetWarning,0810.4,5.00,000.00,021.2,020.3,000.0,029.6,022.9,011.3,0000.0,0001.60,0015.17,0000.24
2024-05-06 15:58:00,SystemResetWarning,0810.1,4.98,000.00,021.2,020.3,000.0,029.6,022.9,011.0,0000.0,0001.61,0014.74,0000.23
2024-05-06 15:59:00,SystemResetWarning,0810.2,4.99,000.00,021.2,020.3,000.0,029.6,022.9,011.2,0000.0,0001.74,0015.02,0000.24
